Date,TemperatureHighF,TemperatureAvgF,TemperatureLowF,DewpointHighF,DewpointAvgF,DewpointLowF,HumidityHigh,HumidityAvg,HumidityLow,PressureMaxIn,PressureMinIn,WindSpeedMaxMPH,WindSpeedAvgMPH,GustSpeedMaxMPH,PrecipitationSumIn
2013-12-1,38.5,34.9,32.5,22.3,20.1,17.2,65,55,44,23.83,23.56,10,3,21,0.24
2013-12-2,39.7,36.6,24.8,19.9,14.2,9.0,74,40,29,23.56,40.00,13,6,25,0.12
2013-12-3,25.2,9.2,-2.2,18.3,-66.6,-99.9,75,18,44,0.00,40.00,9,3,18,0.00
2013-12-4,6.8,0.1,-11.7,-99.9,-99.9,-99.9,0,0,100,23.56,40.00,7,2,10,0.00
2013-12-5,-2.2,-4.4,-5.8,-99.9,-99.9,-99.9,0,0,100,23.56,23.56,5,3,9,0.00
2013-12-7,16.9,11.0,5.9,-7.4,-78.6,-99.9,36,8,27,0.00,40.00,18,8,30,0.00
2013-12-8,5.9,1.5,-7.6,-99.9,-99.9,-99.9,0,0,100,23.62,40.00,7,2,10,0.00
2013-12-9,7.9,4.3,-3.8,-99.9,-99.9,-99.9,0,0,100,23.89,23.83,6,2,9,0.00
2013-12-10,18.1,11.1,5.2,-8.3,-75.9,-99.9,35,7,21,23.86,23.74,6,2,13,0.00
2013-12-11,21.6,11.7,2.5,-0.4,-65.4,-99.9,50,12,22,23.98,23.86,7,4,12,0.00
2013-12-12,28.9,19.0,7.5,6.4,-16.8,-99.9,59,34,23,23.95,23.71,8,3,13,0.00
2013-12-13,23.7,17.5,9.5,4.6,-8.4,-99.9,61,44,40,23.92,23.68,7,2,12,0.00
2013-12-14,28.0,23.4,15.4,13.1,8.8,3.7,61,53,44,24.01,23.92,4,1,12,0.00
2013-12-15,33.8,27.6,21.4,11.8,4.2,-6.7,54,38,20,24.01,23.92,7,3,14,0.00
2013-12-16,40.5,26.6,14.9,7.5,2.3,-4.9,53,36,16,24.01,23.92,7,4,12,0.00
2013-12-17,46.2,31.1,19.9,6.3,0.9,-4.7,45,29,14,24.01,23.74,8,6,14,0.00
2013-12-18,46.8,35.7,27.3,5.9,0.7,-4.7,39,23,14,23.74,40.00,7,4,13,0.00
2013-12-19,33.6,20.1,2.5,20.3,-21.4,-99.9,74,38,22,23.53,40.00,11,3,17,0.00
2013-12-20,20.8,13.2,2.8,3.2,-40.0,-99.9,57,27,35,23.53,40.00,5,2,11,0.00
2013-12-21,23.5,18.4,14.5,9.3,5.2,2.8,68,56,43,23.62,23.62,6,1,9,0.00
2013-12-22,27.1,21.5,15.6,14.5,6.6,1.2,67,52,34,23.83,23.62,8,3,13,0.00
2013-12-23,35.1,30.8,25.5,24.1,16.8,10.6,72,56,41,23.89,23.71,6,1,17,0.00
2013-12-24,35.2,21.3,9.1,26.8,-20.1,-99.9,83,35,21,24.01,23.68,19,4,31,0.04
2013-12-25,31.1,16.9,7.0,1.6,-36.6,-99.9,46,23,20,24.07,23.98,8,5,13,0.00
2013-12-26,32.9,23.4,15.6,4.8,0.1,-8.5,52,37,18,24.01,23.95,6,3,12,0.00
2013-12-27,42.1,28.0,19.4,8.2,1.0,-7.1,44,32,15,23.98,23.71,8,4,13,0.00
2013-12-28,30.9,22.8,12.4,9.3,0.4,-99.9,62,44,25,23.83,23.68,10,2,14,0.00
2013-12-29,24.6,16.9,0.5,3.9,-38.0,-99.9,45,24,33,23.89,23.77,5,2,12,0.00
2013-12-30,32.7,25.6,21.4,18.3,1.7,-8.7,67,37,18,23.89,23.77,5,1,10,0.00
2013-12-31,35.1,30.1,24.3,21.7,11.7,6.1,77,48,32,23.80,23.65,14,2,21,0.00